Find Starlink 5358

NORAD ID: 57143 Int'l Des: 2023-090 Owner: SPXS Country: US Constellation: starlink operational
LEOCIRCULAR

实时位置

正在加载3D地球...

关于 Starlink 5358

正在加载描述...

即将过境

Passes for default location (London). Set your location on the main map for personalized predictions.

高度历史

Loading altitude history...

两行轨道根数

1 57143U 23090AU 26105.86859206 -.00000213 00000-0 17479-5 0 9992
2 57143 43.0031 53.0104 0000997 265.9450 94.1287 15.26742520156043
Epoch: Apr 15, 2026 • Age: 15 hours

当前状态

高度 488.5 km
速度 7.63 km/s
星下点 39.41°N, 151.79°E
发射日期 Jun 23, 2023
运行时间 2.8 years
类型 internet

技术详情

分类 Payload
质量 305.00 kg
干质量 290.00 kg
总质量 305.00 kg
长度 0.20 m
直径 2.80 m
跨度 9.00 m
形状 Box + pan
制造商 SPXS
平台类型 Starlink
阶段状态 In Orbit
所有者/国家 SPXS/US

Most Searched